This demonstration page uses our WeatherBlox Daily Observations layout. Learn more.

Left ArrowRight Arrow

Hourly Observations for October 26, 2019

Temp ( °F °C ) Dew Point ( °F °C ) Humidity (%) Winds ( mph kmh ) Pressure ( in mb ) Visibility ( mi km ) Precip ( " mm )
12:53 am 00:53 Clear 49 9.4 46 7.8 90 90 Calm 30.19 1022 7 11 0.00 0.00
1:53 am 01:53 Clear 48 8.9 46 7.8 93 93 Calm 30.18 1022 8 13 0.00 0.00
2:53 am 02:53 Mostly Clear 51 10.6 47 8.3 86 86 ENE 3 6 30.16 1021 9 14 0.00 0.00
3:53 am 03:53 Cloudy 52 11.1 46 7.8 80 80 ENE 6 9 30.14 1021 9 14 0.00 0.00
4:53 am 04:53 Cloudy 52 11.1 46 7.8 80 80 ENE 7 11 30.12 1020 10 16 0.00 0.00
5:53 am 05:53 Cloudy with Light Rain 51 10.6 48 8.9 89 89 E 6 9 30.11 1020 8 13 0.00 0.00
6:53 am 06:53 Cloudy with Light Rain 51 10.6 49 9.4 92 92 ENE 5 7 30.08 1019 6 10 0.02 0.51
7:53 am 07:53 Cloudy with Light Rain 51 10.6 49 9.4 92 92 E 7 11 30.06 1018 6 10 0.01 0.25
8:37 am 08:37 Cloudy with Rain 52 11.1 50 10 93 93 ENE 8 13 30.06 1018 3 4 0.04 1.02
8:53 am 08:53 Cloudy with Light Rain 52 11.1 50 10 93 93 ENE 9 15 30.04 1017 4 6 0.05 1.27
9:14 am 09:14 Cloudy with Rain 52 11.1 51 10.6 97 97 E 9 15 30.06 1018 3 5 0.02 0.51
9:24 am 09:24 Cloudy with Rain 52 11.1 51 10.6 97 97 E 8 13 30.06 1018 2 3 0.05 1.27
9:37 am 09:37 Cloudy with Rain 52 11.1 51 10.6 97 97 E 10 17 30.06 1018 2 3 0.07 1.78
9:49 am 09:49 Cloudy with Rain 52 11.1 51 10.6 97 97 E 12 19 30.03 1017 2 2 0.10 2.54
10:03 am 10:03 Cloudy with Rain 52 11.1 51 10.6 97 97 E 12 19 30.03 1017 2 3 0.04 1.02
10:20 am 10:20 Cloudy with Rain 53 11.7 51 10.6 93 93 E 10 17 30.03 1017 2 3 0.09 2.29
10:27 am 10:27 Cloudy with Rain 53 11.7 51 10.6 93 93 E 9 15 30.03 1017 2 3 0.11 2.79
10:36 am 10:36 Cloudy with Rain 53 11.7 51 10.6 93 93 E 10 17 30.03 1017 3 4 0.13 3.30
10:53 am 10:53 Cloudy with Heavy Rain 53 11.7 52 11.1 96 96 E 9 15 30.00 1016 2 3 0.20 5.08
11:44 am 11:44 Cloudy with Light Rain 53 11.7 52 11.1 96 96 E 12 19 30.00 1016 7 11 0.20 5.08
11:53 am 11:53 Cloudy with Rain 53 11.7 52 11.1 96 96 E 9 15 29.96 1015 4 6 0.23 5.84
12:53 pm 12:53 Cloudy with Light Rain 54 12.2 53 11.7 97 97 E 10 17 29.92 1013 9 14 0.06 1.52
1:43 pm 13:43 Cloudy with Light Rain 55 12.8 54 12.2 96 96 E 7 11 29.88 1012 10 16 0.03 0.76
1:53 pm 13:53 Cloudy with Light Rain 56 13.3 54 12.2 93 93 E 8 13 29.87 1012 10 16 0.03 0.76
2:53 pm 14:53 Cloudy with Light Rain 57 13.9 55 12.8 93 93 E 5 7 29.82 1010 10 16 0.00 0.00
3:53 pm 15:53 Cloudy with Light Rain 58 14.4 56 13.3 93 93 E 8 13 29.78 1008 5 8 0.04 1.02
4:00 pm 16:00 Cloudy with Light Rain 58 14.4 57 13.9 97 97 E 7 11 29.77 1008 9 14 0.00 0.00
4:42 pm 16:42 Cloudy with Light Rain 59 15 57 13.9 93 93 ESE 9 15 29.74 1007 10 16 0.01 0.25
4:53 pm 16:53 Cloudy with Rain 59 15 57 13.9 93 93 E 7 11 29.72 1007 4 6 0.03 0.76
5:53 pm 17:53 Cloudy with Light Rain 60 15.6 58 14.4 93 93 ESE 8 13 29.68 1005 6 10 0.07 1.78
6:53 pm 18:53 Cloudy with Light Rain 61 16.1 59 15 93 93 ESE 9 15 29.65 1004 10 16 0.01 0.25
7:53 pm 19:53 Cloudy 62 16.7 59 15 90 90 ESE 8 13 29.63 1003 10 16 0.00 0.00
8:53 pm 20:53 Cloudy with Rain 62 16.7 61 16.1 96 96 SE 6 9 29.63 1003 3 5 0.07 1.78
9:28 pm 21:28 Cloudy 63 17.2 61 16.1 93 93 VRB 6 9 29.62 1003 10 16 0.00 0.00
9:53 pm 21:53 Cloudy with Light Rain 63 17.2 61 16.1 93 93 VRB 7 11 29.60 1002 7 11 0.01 0.25
10:00 pm 22:00 Cloudy with Heavy Rain 63 17.2 61 16.1 93 93 VRB 3 6 29.62 1003 3 4 0.03 0.76
10:05 pm 22:05 Cloudy with Heavy Rain 63 17.2 62 16.7 97 97 VRB 7 11 29.62 1003 2 3 0.07 1.78
10:12 pm 22:12 Cloudy with Rain 63 17.2 62 16.7 97 97 VRB 5 7 29.59 1002 3 4 0.09 2.29
10:21 pm 22:21 Cloudy with Light Rain 63 17.2 62 16.7 97 97 S 8 13 29.62 1003 5 8 0.10 2.54
10:31 pm 22:31 Cloudy 63 17.2 62 16.7 97 97 VRB 5 7 29.59 1002 10 16 0.10 2.54
10:53 pm 22:53 Cloudy with Light Rain 64 17.8 62 16.7 93 93 VRB 6 9 29.58 1002 10 16 0.10 2.54
11:18 pm 23:18 Cloudy with Light Rain 64 17.8 62 16.7 93 93 S 6 9 29.59 1002 9 14 0.00 0.00
11:40 pm 23:40 Cloudy with Light Rain 64 17.8 63 17.2 96 96 SSW 8 13 29.62 1003 10 16 0.01 0.25
11:53 pm 23:53 Cloudy 65 18.3 63 17.2 93 93 VRB 7 11 29.61 1003 10 16 0.01 0.25

Powered by AerisWeather